Time,TemperatureF,DewpointF,PressureIn,WindDirection,WindDirectionDegrees,WindSpeedMPH,WindSpeedGustMPH,Humidity,HourlyPrecipIn,Conditions,Clouds,dailyrainin,SoftwareType,DateUTC
2013-01-07 00:00:00,31.2,29.0,29.95,WSW,247,0.0,1.2,94,0.00,,,0.00,Rainwise IP-100,2013-01-07 05:00:00,
2013-01-07 00:01:00,31.2,29.0,29.95,WSW,247,0.0,1.2,94,0.00,,,0.00,Rainwise IP-100,2013-01-07 05:01:00,
2013-01-07 00:06:00,31.6,31.0,29.95,WSW,247,1.2,2.1,94,0.00,,,0.00,Rainwise IP-100,2013-01-07 05:06:00,
2013-01-07 00:11:00,31.8,31.0,29.95,WSW,247,0.0,1.6,95,0.00,,,0.00,Rainwise IP-100,2013-01-07 05:11:00,
2013-01-07 00:16:00,32.0,31.0,29.95,West,270,2.3,3.7,95,0.00,,,0.00,Rainwise IP-100,2013-01-07 05:16:00,
2013-01-07 00:21:00,32.4,31.0,29.96,WNW,292,4.0,4.0,94,0.00,,,0.00,Rainwise IP-100,2013-01-07 05:21:00,
2013-01-07 00:26:00,32.6,32.0,29.95,West,270,4.9,5.1,94,0.00,,,0.00,Rainwise IP-100,2013-01-07 05:26:00,
2013-01-07 00:31:00,32.9,32.0,29.96,WNW,292,2.8,5.6,93,0.00,,,0.00,Rainwise IP-100,2013-01-07 05:31:00,
2013-01-07 00:36:00,33.2,32.0,29.96,WNW,292,1.2,6.1,93,0.00,,,0.00,Rainwise IP-100,2013-01-07 05:36:00,
2013-01-07 00:41:00,33.2,31.0,29.96,WNW,292,0.0,4.4,92,0.00,,,0.00,Rainwise IP-100,2013-01-07 05:41:00,
2013-01-07 00:46:00,33.0,31.0,29.96,WNW,292,1.2,5.4,92,0.00,,,0.00,Rainwise IP-100,2013-01-07 05:46:00,
2013-01-07 00:51:00,33.0,31.0,29.96,West,270,1.4,5.6,91,0.00,,,0.00,Rainwise IP-100,2013-01-07 05:51:00,
2013-01-07 00:56:00,33.2,31.0,29.97,WNW,292,2.1,3.0,91,0.00,,,0.00,Rainwise IP-100,2013-01-07 05:56:00,
2013-01-07 01:01:00,33.3,31.0,29.97,WNW,292,2.3,5.6,90,0.00,,,0.00,Rainwise IP-100,2013-01-07 06:01:00,
2013-01-07 01:06:00,33.6,32.0,29.97,WNW,292,0.0,5.8,89,0.00,,,0.00,Rainwise IP-100,2013-01-07 06:06:00,
2013-01-07 01:11:00,33.5,32.0,29.97,NNW,337,1.6,5.4,88,0.00,,,0.00,Rainwise IP-100,2013-01-07 06:11:00,
2013-01-07 01:16:00,33.6,32.0,29.98,WNW,292,3.5,7.7,88,0.00,,,0.00,Rainwise IP-100,2013-01-07 06:16:00,
2013-01-07 01:21:00,33.8,31.0,29.98,NW,315,0.0,4.7,87,0.00,,,0.00,Rainwise IP-100,2013-01-07 06:21:00,
2013-01-07 01:26:00,33.7,31.0,29.98,NW,315,0.0,6.3,87,0.00,,,0.00,Rainwise IP-100,2013-01-07 06:26:00,
2013-01-07 01:31:00,33.5,31.0,29.98,NW,315,0.0,5.8,87,0.00,,,0.00,Rainwise IP-100,2013-01-07 06:31:00,
2013-01-07 01:36:00,33.3,31.0,29.98,WNW,292,2.6,5.4,87,0.00,,,0.00,Rainwise IP-100,2013-01-07 06:36:00,
2013-01-07 01:41:00,33.1,31.0,29.99,NW,315,1.2,5.8,87,0.00,,,0.00,Rainwise IP-100,2013-01-07 06:41:00,
2013-01-07 01:46:00,33.2,29.0,29.99,WNW,292,1.4,5.8,86,0.00,,,0.00,Rainwise IP-100,2013-01-07 06:46:00,
2013-01-07 01:51:00,33.2,29.0,29.99,NNW,337,2.6,4.7,86,0.00,,,0.00,Rainwise IP-100,2013-01-07 06:51:00,
2013-01-07 01:56:00,33.1,29.0,29.99,WNW,292,2.3,3.5,86,0.00,,,0.00,Rainwise IP-100,2013-01-07 06:56:00,
2013-01-07 02:01:00,32.9,29.0,30.00,West,270,4.0,5.4,86,0.00,,,0.00,Rainwise IP-100,2013-01-07 07:01:00,
2013-01-07 02:06:00,33.0,29.0,30.00,NW,315,2.6,6.5,86,0.00,,,0.00,Rainwise IP-100,2013-01-07 07:06:00,
2013-01-07 02:11:00,33.2,29.0,30.00,NW,315,0.0,6.5,85,0.00,,,0.00,Rainwise IP-100,2013-01-07 07:11:00,
2013-01-07 02:16:00,33.4,29.0,30.00,NNW,337,2.6,4.0,85,0.00,,,0.00,Rainwise IP-100,2013-01-07 07:16:00,
2013-01-07 02:21:00,33.3,29.0,30.00,North,360,1.9,5.6,84,0.00,,,0.00,Rainwise IP-100,2013-01-07 07:21:00,
2013-01-07 02:26:00,33.3,29.0,30.00,WNW,292,1.2,7.0,84,0.00,,,0.00,Rainwise IP-100,2013-01-07 07:26:00,
2013-01-07 02:31:00,33.3,29.0,30.00,WNW,292,0.0,3.7,84,0.00,,,0.00,Rainwise IP-100,2013-01-07 07:31:00,
2013-01-07 02:36:00,33.2,29.0,30.00,WNW,292,0.0,4.2,84,0.00,,,0.00,Rainwise IP-100,2013-01-07 07:36:00,
2013-01-07 02:41:00,33.2,29.0,30.00,West,270,0.0,5.1,83,0.00,,,0.00,Rainwise IP-100,2013-01-07 07:41:00,
2013-01-07 02:46:00,33.1,29.0,30.00,WNW,292,4.7,4.7,83,0.00,,,0.00,Rainwise IP-100,2013-01-07 07:46:00,
2013-01-07 02:51:00,33.1,29.0,30.00,WSW,247,2.3,5.1,83,0.00,,,0.00,Rainwise IP-100,2013-01-07 07:51:00,
2013-01-07 02:56:00,33.2,29.0,29.99,WSW,247,2.1,4.4,83,0.00,,,0.00,Rainwise IP-100,2013-01-07 07:56:00,
2013-01-07 03:01:00,32.9,29.0,30.00,NW,315,0.0,5.8,83,0.00,,,0.00,Rainwise IP-100,2013-01-07 08:01:00,
2013-01-07 03:06:00,32.6,29.0,30.00,NW,315,0.0,3.3,83,0.00,,,0.00,Rainwise IP-100,2013-01-07 08:06:00,
2013-01-07 03:11:00,32.3,28.0,29.99,WNW,292,1.4,3.0,83,0.00,,,0.00,Rainwise IP-100,2013-01-07 08:11:00,
2013-01-07 03:16:00,32.1,28.0,30.00,NW,315,0.0,4.2,84,0.00,,,0.00,Rainwise IP-100,2013-01-07 08:16:00,
2013-01-07 03:21:00,32.1,28.0,30.00,NW,315,0.0,4.0,85,0.00,,,0.00,Rainwise IP-100,2013-01-07 08:21:00,
2013-01-07 03:26:00,32.1,28.0,30.00,West,270,2.1,5.6,85,0.00,,,0.00,Rainwise IP-100,2013-01-07 08:26:00,
2013-01-07 03:31:00,32.1,28.0,30.00,WNW,292,0.0,4.2,85,0.00,,,0.00,Rainwise IP-100,2013-01-07 08:31:00,
2013-01-07 03:36:00,32.4,28.0,30.00,WNW,292,1.6,6.5,84,0.00,,,0.00,Rainwise IP-100,2013-01-07 08:36:00,
2013-01-07 03:41:00,32.9,29.0,30.00,NW,315,3.0,7.0,84,0.00,,,0.00,Rainwise IP-100,2013-01-07 08:41:00,
2013-01-07 03:46:00,32.9,29.0,30.00,WNW,292,1.4,4.0,83,0.00,,,0.00,Rainwise IP-100,2013-01-07 08:46:00,
2013-01-07 03:51:00,32.7,29.0,30.00,NW,315,1.6,4.7,83,0.00,,,0.00,Rainwise IP-100,2013-01-07 08:51:00,
2013-01-07 03:56:00,32.7,29.0,30.00,NW,315,1.4,4.7,83,0.00,,,0.00,Rainwise IP-100,2013-01-07 08:56:00,
2013-01-07 04:01:00,32.6,29.0,30.00,West,270,6.5,6.5,83,0.00,,,0.00,Rainwise IP-100,2013-01-07 09:01:00,
2013-01-07 04:07:00,32.8,29.0,30.00,NW,315,4.9,6.8,83,0.00,,,0.00,Rainwise IP-100,2013-01-07 09:07:00,
2013-01-07 04:12:00,33.4,29.0,30.01,NNW,337,1.6,5.8,82,0.00,,,0.00,Rainwise IP-100,2013-01-07 09:12:00,
2013-01-07 04:17:00,33.6,29.0,30.01,NNW,337,2.1,6.1,81,0.00,,,0.00,Rainwise IP-100,2013-01-07 09:17:00,
2013-01-07 04:22:00,33.6,29.0,30.00,NW,315,2.1,6.3,81,0.00,,,0.00,Rainwise IP-100,2013-01-07 09:22:00,
2013-01-07 04:27:00,33.7,29.0,30.01,WNW,292,1.9,6.5,81,0.00,,,0.00,Rainwise IP-100,2013-01-07 09:27:00,
2013-01-07 04:32:00,33.7,29.0,30.01,WNW,292,1.2,6.3,80,0.00,,,0.00,Rainwise IP-100,2013-01-07 09:32:00,
2013-01-07 04:37:00,33.7,29.0,30.01,WSW,247,2.3,5.4,80,0.00,,,0.00,Rainwise IP-100,2013-01-07 09:37:00,
2013-01-07 04:42:00,33.7,29.0,30.01,WNW,292,3.3,4.4,80,0.00,,,0.00,Rainwise IP-100,2013-01-07 09:42:00,
2013-01-07 04:47:00,33.6,29.0,30.01,NNW,337,4.7,6.5,80,0.00,,,0.00,Rainwise IP-100,2013-01-07 09:47:00,
2013-01-07 04:52:00,33.6,29.0,30.01,WNW,292,2.3,7.5,80,0.00,,,0.00,Rainwise IP-100,2013-01-07 09:52:00,
2013-01-07 04:57:00,33.7,29.0,30.02,NNW,337,0.0,8.6,80,0.00,,,0.00,Rainwise IP-100,2013-01-07 09:57:00,
2013-01-07 05:02:00,33.7,29.0,30.02,West,270,0.0,5.8,80,0.00,,,0.00,Rainwise IP-100,2013-01-07 10:02:00,
2013-01-07 05:07:00,33.7,29.0,30.02,NW,315,4.7,4.7,80,0.00,,,0.00,Rainwise IP-100,2013-01-07 10:07:00,
2013-01-07 05:12:00,33.5,29.0,30.02,NNW,337,1.4,6.1,80,0.00,,,0.00,Rainwise IP-100,2013-01-07 10:12:00,
2013-01-07 05:17:00,33.4,28.0,30.03,West,270,0.0,7.0,80,0.00,,,0.00,Rainwise IP-100,2013-01-07 10:17:00,
2013-01-07 05:22:00,33.2,28.0,30.03,NNW,337,4.0,6.8,80,0.00,,,0.00,Rainwise IP-100,2013-01-07 10:22:00,
2013-01-07 05:27:00,33.1,28.0,30.03,WSW,247,4.9,8.2,80,0.00,,,0.00,Rainwise IP-100,2013-01-07 10:27:00,
2013-01-07 05:32:00,33.1,28.0,30.04,NW,315,2.3,6.8,81,0.00,,,0.00,Rainwise IP-100,2013-01-07 10:32:00,
2013-01-07 05:37:00,33.1,28.0,30.04,WNW,292,1.4,9.3,81,0.00,,,0.00,Rainwise IP-100,2013-01-07 10:37:00,
2013-01-07 05:42:00,33.2,28.0,30.04,WSW,247,3.0,7.0,81,0.00,,,0.00,Rainwise IP-100,2013-01-07 10:42:00,
2013-01-07 05:47:00,33.3,28.0,30.05,NW,315,3.0,7.9,81,0.00,,,0.00,Rainwise IP-100,2013-01-07 10:47:00,
2013-01-07 05:52:00,33.3,28.0,30.05,WNW,292,1.4,5.4,81,0.00,,,0.00,Rainwise IP-100,2013-01-07 10:52:00,
2013-01-07 05:57:00,33.2,28.0,30.06,West,270,1.4,8.6,81,0.00,,,0.00,Rainwise IP-100,2013-01-07 10:57:00,
2013-01-07 06:02:00,33.2,29.0,30.06,WNW,292,0.0,7.0,82,0.00,,,0.00,Rainwise IP-100,2013-01-07 11:02:00,
2013-01-07 06:07:00,33.2,29.0,30.05,WNW,292,1.9,5.8,82,0.00,,,0.00,Rainwise IP-100,2013-01-07 11:07:00,
2013-01-07 06:12:00,33.3,28.0,30.06,NW,315,0.0,7.5,81,0.00,,,0.00,Rainwise IP-100,2013-01-07 11:12:00,
2013-01-07 06:17:00,33.1,28.0,30.06,WSW,247,1.6,5.4,81,0.00,,,0.00,Rainwise IP-100,2013-01-07 11:17:00,
2013-01-07 06:22:00,33.0,29.0,30.06,NW,315,2.8,7.0,82,0.00,,,0.00,Rainwise IP-100,2013-01-07 11:22:00,
2013-01-07 06:27:00,33.0,29.0,30.06,WNW,292,1.9,5.1,82,0.00,,,0.00,Rainwise IP-100,2013-01-07 11:27:00,
2013-01-07 06:32:00,32.7,29.0,30.06,WNW,292,2.8,4.7,82,0.00,,,0.00,Rainwise IP-100,2013-01-07 11:32:00,
2013-01-07 06:37:00,32.6,29.0,30.07,WNW,292,1.2,4.7,82,0.00,,,0.00,Rainwise IP-100,2013-01-07 11:37:00,
2013-01-07 06:42:00,32.6,29.0,30.07,WNW,292,4.9,4.9,83,0.00,,,0.00,Rainwise IP-100,2013-01-07 11:42:00,
2013-01-07 06:47:00,32.6,29.0,30.08,WNW,292,1.6,5.8,83,0.00,,,0.00,Rainwise IP-100,2013-01-07 11:47:00,
2013-01-07 06:52:00,32.7,29.0,30.08,WSW,247,3.5,7.2,83,0.00,,,0.00,Rainwise IP-100,2013-01-07 11:52:00,
2013-01-07 06:57:00,32.7,29.0,30.08,WNW,292,3.0,4.9,83,0.00,,,0.00,Rainwise IP-100,2013-01-07 11:57:00,
2013-01-07 07:02:00,32.8,29.0,30.09,WNW,292,1.4,8.2,83,0.00,,,0.00,Rainwise IP-100,2013-01-07 12:02:00,
2013-01-07 07:07:00,32.8,29.0,30.09,WNW,292,3.5,4.4,83,0.00,,,0.00,Rainwise IP-100,2013-01-07 12:07:00,
2013-01-07 07:12:00,32.9,29.0,30.09,WSW,247,4.7,8.6,83,0.00,,,0.00,Rainwise IP-100,2013-01-07 12:12:00,
2013-01-07 07:17:00,33.1,29.0,30.10,West,270,3.5,7.9,83,0.00,,,0.00,Rainwise IP-100,2013-01-07 12:17:00,
2013-01-07 07:22:00,33.0,29.0,30.10,NW,315,0.0,7.0,83,0.00,,,0.00,Rainwise IP-100,2013-01-07 12:22:00,
2013-01-07 07:27:00,33.0,29.0,30.10,NW,315,1.6,4.7,83,0.00,,,0.00,Rainwise IP-100,2013-01-07 12:27:00,
2013-01-07 07:32:00,33.2,29.0,30.11,WNW,292,2.8,10.7,83,0.00,,,0.00,Rainwise IP-100,2013-01-07 12:32:00,
2013-01-07 07:37:00,33.5,31.0,30.11,NNW,337,3.0,7.2,83,0.00,,,0.00,Rainwise IP-100,2013-01-07 12:37:00,
2013-01-07 07:42:00,33.7,29.0,30.11,NNW,337,2.1,7.2,82,0.00,,,0.00,Rainwise IP-100,2013-01-07 12:42:00,
2013-01-07 07:47:00,33.8,29.0,30.11,North,360,2.3,9.1,82,0.00,,,0.00,Rainwise IP-100,2013-01-07 12:47:00,
2013-01-07 07:52:00,33.9,29.0,30.12,WSW,247,2.6,6.5,82,0.00,,,0.00,Rainwise IP-100,2013-01-07 12:52:00,
2013-01-07 07:57:00,34.0,29.0,30.12,NW,315,5.8,8.9,82,0.00,,,0.00,Rainwise IP-100,2013-01-07 12:57:00,
2013-01-07 08:02:00,34.3,29.0,30.12,NW,315,5.8,8.9,81,0.00,,,0.00,Rainwise IP-100,2013-01-07 13:02:00,
2013-01-07 08:07:00,34.6,29.0,30.13,NNW,337,2.1,8.6,81,0.00,,,0.00,Rainwise IP-100,2013-01-07 13:07:00,
2013-01-07 08:12:00,34.7,29.0,30.13,WNW,292,2.6,8.9,80,0.00,,,0.00,Rainwise IP-100,2013-01-07 13:12:00,
2013-01-07 08:17:00,35.1,29.0,30.13,NNW,337,4.0,6.8,80,0.00,,,0.00,Rainwise IP-100,2013-01-07 13:17:00,
2013-01-07 08:22:00,35.5,31.0,30.14,NW,315,4.0,7.9,79,0.00,,,0.00,Rainwise IP-100,2013-01-07 13:22:00,
2013-01-07 08:27:00,35.9,29.0,30.14,North,360,0.0,6.3,78,0.00,,,0.00,Rainwise IP-100,2013-01-07 13:27:00,
2013-01-07 08:32:00,36.3,29.0,30.15,NW,315,6.1,7.0,77,0.00,,,0.00,Rainwise IP-100,2013-01-07 13:32:00,
2013-01-07 08:37:00,36.5,31.0,30.15,NW,315,4.0,7.0,77,0.00,,,0.00,Rainwise IP-100,2013-01-07 13:37:00,
2013-01-07 08:42:00,36.8,31.0,30.16,WNW,292,3.7,7.2,76,0.00,,,0.00,Rainwise IP-100,2013-01-07 13:42:00,
2013-01-07 08:47:00,37.0,31.0,30.16,WNW,292,2.3,7.7,75,0.00,,,0.00,Rainwise IP-100,2013-01-07 13:47:00,
2013-01-07 08:52:00,37.3,31.0,30.16,WNW,292,2.3,7.7,75,0.00,,,0.00,Rainwise IP-100,2013-01-07 13:52:00,
2013-01-07 08:57:00,37.7,31.0,30.17,NW,315,1.4,8.2,74,0.00,,,0.00,Rainwise IP-100,2013-01-07 13:57:00,
2013-01-07 09:02:00,38.1,31.0,30.17,WNW,292,4.7,12.1,73,0.00,,,0.00,Rainwise IP-100,2013-01-07 14:02:00,
2013-01-07 09:07:00,38.4,31.0,30.17,NNW,337,4.9,8.6,72,0.00,,,0.00,Rainwise IP-100,2013-01-07 14:07:00,
2013-01-07 09:12:00,38.7,31.0,30.18,North,360,4.4,8.9,72,0.00,,,0.00,Rainwise IP-100,2013-01-07 14:12:00,
2013-01-07 09:17:00,39.0,31.0,30.18,NW,315,0.0,8.2,71,0.00,,,0.00,Rainwise IP-100,2013-01-07 14:17:00,
2013-01-07 09:22:00,39.4,31.0,30.18,NNW,337,4.0,12.4,70,0.00,,,0.00,Rainwise IP-100,2013-01-07 14:22:00,
2013-01-07 09:27:00,39.8,31.0,30.19,NNW,337,7.7,8.6,69,0.00,,,0.00,Rainwise IP-100,2013-01-07 14:27:00,
2013-01-07 09:32:00,39.8,31.0,30.19,NW,315,2.3,12.4,69,0.00,,,0.00,Rainwise IP-100,2013-01-07 14:32:00,
2013-01-07 09:37:00,39.7,31.0,30.20,NNW,337,6.8,11.4,69,0.00,,,0.00,Rainwise IP-100,2013-01-07 14:37:00,
2013-01-07 09:42:00,40.0,31.0,30.20,NW,315,3.3,10.7,69,0.00,,,0.00,Rainwise IP-100,2013-01-07 14:42:00,
2013-01-07 09:47:00,40.0,31.0,30.20,North,360,3.0,11.9,68,0.00,,,0.00,Rainwise IP-100,2013-01-07 14:47:00,
2013-01-07 09:52:00,40.0,31.0,30.21,North,360,8.2,15.4,68,0.00,,,0.00,Rainwise IP-100,2013-01-07 14:52:00,
2013-01-07 09:57:00,40.1,31.0,30.21,NW,315,7.7,12.8,68,0.00,,,0.00,Rainwise IP-100,2013-01-07 14:57:00,
2013-01-07 10:02:00,40.2,31.0,30.21,NNW,337,7.9,11.0,67,0.00,,,0.00,Rainwise IP-100,2013-01-07 15:02:00,
2013-01-07 10:07:00,40.4,31.0,30.20,NNW,337,7.7,14.5,67,0.00,,,0.00,Rainwise IP-100,2013-01-07 15:07:00,
2013-01-07 10:12:00,40.4,31.0,30.21,North,360,8.4,14.7,67,0.00,,,0.00,Rainwise IP-100,2013-01-07 15:12:00,
2013-01-07 10:17:00,40.4,31.0,30.21,WNW,292,10.5,11.7,66,0.00,,,0.00,Rainwise IP-100,2013-01-07 15:17:00,
2013-01-07 10:22:00,40.6,31.0,30.21,NNW,337,9.3,13.1,65,0.00,,,0.00,Rainwise IP-100,2013-01-07 15:22:00,
2013-01-07 10:27:00,40.8,31.0,30.21,North,360,7.2,12.4,64,0.00,,,0.00,Rainwise IP-100,2013-01-07 15:27:00,
2013-01-07 10:32:00,40.9,29.0,30.21,NNE,22,9.1,14.5,63,0.00,,,0.00,Rainwise IP-100,2013-01-07 15:32:00,
2013-01-07 10:37:00,40.8,29.0,30.21,NNE,22,7.0,13.8,62,0.00,,,0.00,Rainwise IP-100,2013-01-07 15:37:00,
2013-01-07 10:42:00,40.9,29.0,30.21,NNW,337,8.9,13.3,61,0.00,,,0.00,Rainwise IP-100,2013-01-07 15:42:00,
2013-01-07 10:47:00,41.0,29.0,30.21,North,360,4.9,13.5,60,0.00,,,0.00,Rainwise IP-100,2013-01-07 15:47:00,
2013-01-07 10:52:00,41.1,28.0,30.21,North,360,15.6,15.6,59,0.00,,,0.00,Rainwise IP-100,2013-01-07 15:52:00,
2013-01-07 10:57:00,41.0,28.0,30.21,North,360,4.0,15.6,59,0.00,,,0.00,Rainwise IP-100,2013-01-07 15:57:00,
2013-01-07 11:02:00,40.9,28.0,30.21,NNW,337,5.8,12.4,59,0.00,,,0.00,Rainwise IP-100,2013-01-07 16:02:00,
2013-01-07 11:07:00,41.0,28.0,30.21,NW,315,10.3,12.4,59,0.00,,,0.00,Rainwise IP-100,2013-01-07 16:07:00,
2013-01-07 11:12:00,40.9,28.0,30.22,NW,315,6.5,11.4,59,0.00,,,0.00,Rainwise IP-100,2013-01-07 16:12:00,
2013-01-07 11:17:00,40.9,28.0,30.22,North,360,10.0,12.8,59,0.00,,,0.00,Rainwise IP-100,2013-01-07 16:17:00,
2013-01-07 11:22:00,41.2,28.0,30.22,NNE,22,7.0,18.0,58,0.00,,,0.00,Rainwise IP-100,2013-01-07 16:22:00,
2013-01-07 11:27:00,41.2,28.0,30.22,NNE,22,7.5,14.5,57,0.00,,,0.00,Rainwise IP-100,2013-01-07 16:27:00,
2013-01-07 11:32:00,40.8,28.0,30.22,NNW,337,2.8,11.9,56,0.00,,,0.00,Rainwise IP-100,2013-01-07 16:32:00,
2013-01-07 11:37:00,40.3,26.0,30.22,WNW,292,6.3,14.0,56,0.00,,,0.00,Rainwise IP-100,2013-01-07 16:37:00,
2013-01-07 11:42:00,40.5,26.0,30.22,NNW,337,9.6,17.3,55,0.00,,,0.00,Rainwise IP-100,2013-01-07 16:42:00,
2013-01-07 11:47:00,41.2,26.0,30.22,NW,315,6.8,13.8,54,0.00,,,0.00,Rainwise IP-100,2013-01-07 16:47:00,
2013-01-07 11:52:00,41.1,26.0,30.22,NNW,337,4.7,13.1,54,0.00,,,0.00,Rainwise IP-100,2013-01-07 16:52:00,
2013-01-07 11:57:00,41.0,26.0,30.22,NW,315,3.0,11.7,54,0.00,,,0.00,Rainwise IP-100,2013-01-07 16:57:00,
2013-01-07 12:02:00,41.3,26.0,30.22,NNW,337,5.4,13.3,54,0.00,,,0.00,Rainwise IP-100,2013-01-07 17:02:00,
2013-01-07 12:07:00,41.6,26.0,30.23,North,360,7.9,13.3,53,0.00,,,0.00,Rainwise IP-100,2013-01-07 17:07:00,
2013-01-07 12:12:00,41.6,26.0,30.23,NNW,337,12.4,13.3,53,0.00,,,0.00,Rainwise IP-100,2013-01-07 17:12:00,
2013-01-07 12:17:00,41.4,26.0,30.23,NNW,337,8.9,15.4,53,0.00,,,0.00,Rainwise IP-100,2013-01-07 17:17:00,
2013-01-07 12:22:00,42.1,28.0,30.24,NNW,337,5.4,12.1,54,0.00,,,0.00,Rainwise IP-100,2013-01-07 17:22:00,
2013-01-07 12:27:00,42.4,26.0,30.23,NE,45,2.8,10.5,52,0.00,,,0.00,Rainwise IP-100,2013-01-07 17:27:00,
2013-01-07 12:32:00,41.2,26.0,30.24,NNE,22,5.1,15.6,52,0.00,,,0.00,Rainwise IP-100,2013-01-07 17:32:00,
2013-01-07 12:37:00,40.1,26.0,30.24,NNW,337,7.2,11.2,54,0.00,,,0.00,Rainwise IP-100,2013-01-07 17:37:00,
2013-01-07 12:42:00,39.6,26.0,30.25,NW,315,2.3,14.5,55,0.00,,,0.00,Rainwise IP-100,2013-01-07 17:42:00,
2013-01-07 12:47:00,39.6,26.0,30.25,North,360,5.6,10.0,56,0.00,,,0.00,Rainwise IP-100,2013-01-07 17:47:00,
2013-01-07 12:52:00,40.1,26.0,30.25,NNE,22,5.6,9.1,56,0.00,,,0.00,Rainwise IP-100,2013-01-07 17:52:00,
2013-01-07 12:57:00,40.9,26.0,30.25,NNW,337,3.0,9.3,54,0.00,,,0.00,Rainwise IP-100,2013-01-07 17:57:00,
2013-01-07 13:02:00,41.4,26.0,30.25,NNW,337,2.1,10.5,54,0.00,,,0.00,Rainwise IP-100,2013-01-07 18:02:00,
2013-01-07 13:07:00,41.5,26.0,30.26,NW,315,4.7,11.7,53,0.00,,,0.00,Rainwise IP-100,2013-01-07 18:07:00,
2013-01-07 13:12:00,41.7,26.0,30.26,ENE,67,4.7,9.3,52,0.00,,,0.00,Rainwise IP-100,2013-01-07 18:12:00,
2013-01-07 13:17:00,42.0,26.0,30.26,NNW,337,4.0,10.3,52,0.00,,,0.00,Rainwise IP-100,2013-01-07 18:17:00,
2013-01-07 13:22:00,42.0,26.0,30.26,NNW,337,7.0,10.7,51,0.00,,,0.00,Rainwise IP-100,2013-01-07 18:22:00,
2013-01-07 13:27:00,41.9,26.0,30.26,North,360,7.9,8.2,50,0.00,,,0.00,Rainwise IP-100,2013-01-07 18:27:00,
2013-01-07 13:32:00,41.7,24.0,30.26,North,360,3.0,8.6,49,0.00,,,0.00,Rainwise IP-100,2013-01-07 18:32:00,
2013-01-07 13:37:00,41.7,24.0,30.26,WNW,292,2.6,9.6,48,0.00,,,0.00,Rainwise IP-100,2013-01-07 18:37:00,
2013-01-07 13:42:00,41.3,24.0,30.27,NNW,337,4.4,10.5,49,0.00,,,0.00,Rainwise IP-100,2013-01-07 18:42:00,
2013-01-07 13:47:00,41.2,24.0,30.27,NNW,337,4.9,7.5,49,0.00,,,0.00,Rainwise IP-100,2013-01-07 18:47:00,
2013-01-07 13:52:00,41.8,24.0,30.27,East,90,2.1,7.7,49,0.00,,,0.00,Rainwise IP-100,2013-01-07 18:52:00,
2013-01-07 13:57:00,42.2,24.0,30.27,NE,45,2.6,10.0,48,0.00,,,0.00,Rainwise IP-100,2013-01-07 18:57:00,
2013-01-07 14:02:00,42.4,24.0,30.28,North,360,5.1,6.8,48,0.00,,,0.00,Rainwise IP-100,2013-01-07 19:02:00,
2013-01-07 14:07:00,42.4,24.0,30.28,NNW,337,3.7,10.0,48,0.00,,,0.00,Rainwise IP-100,2013-01-07 19:07:00,
2013-01-07 14:12:00,41.9,24.0,30.28,WNW,292,5.6,10.0,47,0.00,,,0.00,Rainwise IP-100,2013-01-07 19:12:00,
2013-01-07 14:17:00,41.1,23.0,30.29,NNW,337,1.9,10.3,48,0.00,,,0.00,Rainwise IP-100,2013-01-07 19:17:00,
2013-01-07 14:22:00,41.0,23.0,30.29,North,360,4.0,5.1,48,0.00,,,0.00,Rainwise IP-100,2013-01-07 19:22:00,
2013-01-07 14:27:00,41.5,24.0,30.29,NNW,337,1.6,7.0,47,0.00,,,0.00,Rainwise IP-100,2013-01-07 19:27:00,
2013-01-07 14:32:00,41.7,24.0,30.29,NNE,22,2.3,6.1,47,0.00,,,0.00,Rainwise IP-100,2013-01-07 19:32:00,
2013-01-07 14:37:00,41.6,24.0,30.30,North,360,4.0,5.6,47,0.00,,,0.00,Rainwise IP-100,2013-01-07 19:37:00,
2013-01-07 14:42:00,41.8,23.0,30.30,NNE,22,0.0,5.8,46,0.00,,,0.00,Rainwise IP-100,2013-01-07 19:42:00,
2013-01-07 14:47:00,42.2,23.0,30.31,WNW,292,3.3,3.3,46,0.00,,,0.00,Rainwise IP-100,2013-01-07 19:47:00,
2013-01-07 14:52:00,42.5,24.0,30.31,NNW,337,4.0,5.6,46,0.00,,,0.00,Rainwise IP-100,2013-01-07 19:52:00,
2013-01-07 14:57:00,42.4,23.0,30.31,NNW,337,0.0,4.9,45,0.00,,,0.00,Rainwise IP-100,2013-01-07 19:57:00,
2013-01-07 15:02:00,42.5,24.0,30.31,North,360,1.4,4.9,45,0.00,,,0.00,Rainwise IP-100,2013-01-07 20:02:00,
2013-01-07 15:07:00,42.4,23.0,30.31,NNE,22,2.3,3.7,45,0.00,,,0.00,Rainwise IP-100,2013-01-07 20:07:00,
2013-01-07 15:12:00,41.9,23.0,30.31,NNW,337,0.0,3.7,45,0.00,,,0.00,Rainwise IP-100,2013-01-07 20:12:00,
2013-01-07 15:17:00,41.8,23.0,30.31,NNE,22,0.0,2.8,44,0.00,,,0.00,Rainwise IP-100,2013-01-07 20:17:00,
2013-01-07 15:22:00,42.1,23.0,30.31,NNE,22,0.0,0.0,44,0.00,,,0.00,Rainwise IP-100,2013-01-07 20:22:00,
2013-01-07 15:27:00,41.7,23.0,30.32,SSW,202,3.0,4.7,45,0.00,,,0.00,Rainwise IP-100,2013-01-07 20:27:00,
2013-01-07 15:32:00,40.9,24.0,30.32,SE,135,0.0,5.4,50,0.00,,,0.00,Rainwise IP-100,2013-01-07 20:32:00,
2013-01-07 15:37:00,40.3,26.0,30.32,SE,135,6.5,6.8,56,0.00,,,0.00,Rainwise IP-100,2013-01-07 20:37:00,
2013-01-07 15:42:00,39.2,26.0,30.32,SE,135,1.9,6.5,59,0.00,,,0.00,Rainwise IP-100,2013-01-07 20:42:00,
2013-01-07 15:47:00,38.4,26.0,30.33,ESE,112,0.0,4.2,61,0.00,,,0.00,Rainwise IP-100,2013-01-07 20:47:00,
2013-01-07 15:52:00,37.9,26.0,30.33,ENE,67,1.4,3.7,63,0.00,,,0.00,Rainwise IP-100,2013-01-07 20:52:00,
2013-01-07 15:57:00,37.7,28.0,30.34,NNW,337,1.2,2.8,64,0.00,,,0.00,Rainwise IP-100,2013-01-07 20:57:00,
2013-01-07 16:02:00,37.5,28.0,30.34,ENE,67,3.0,3.0,65,0.00,,,0.00,Rainwise IP-100,2013-01-07 21:02:00,
2013-01-07 16:07:00,37.0,28.0,30.33,ENE,67,1.2,3.3,66,0.00,,,0.00,Rainwise IP-100,2013-01-07 21:07:00,
2013-01-07 16:12:00,36.6,28.0,30.33,ENE,67,0.0,4.2,67,0.00,,,0.00,Rainwise IP-100,2013-01-07 21:12:00,
2013-01-07 16:17:00,36.3,26.0,30.33,NE,45,2.1,2.3,68,0.00,,,0.00,Rainwise IP-100,2013-01-07 21:17:00,
2013-01-07 16:22:00,35.9,26.0,30.33,NE,45,1.6,3.3,69,0.00,,,0.00,Rainwise IP-100,2013-01-07 21:22:00,
2013-01-07 16:27:00,35.5,28.0,30.33,East,90,0.0,3.7,71,0.00,,,0.00,Rainwise IP-100,2013-01-07 21:27:00,
2013-01-07 16:32:00,35.2,26.0,30.33,East,90,0.0,0.0,72,0.00,,,0.00,Rainwise IP-100,2013-01-07 21:32:00,
2013-01-07 16:37:00,34.6,28.0,30.34,East,90,0.0,2.8,73,0.00,,,0.00,Rainwise IP-100,2013-01-07 21:37:00,
2013-01-07 16:42:00,34.1,28.0,30.34,East,90,0.0,1.4,74,0.00,,,0.00,Rainwise IP-100,2013-01-07 21:42:00,
2013-01-07 16:47:00,33.8,28.0,30.33,East,90,0.0,1.4,76,0.00,,,0.00,Rainwise IP-100,2013-01-07 21:47:00,
2013-01-07 16:52:00,33.4,28.0,30.34,NE,45,0.0,1.6,77,0.00,,,0.00,Rainwise IP-100,2013-01-07 21:52:00,
2013-01-07 16:57:00,33.0,28.0,30.35,NE,45,0.0,1.9,78,0.00,,,0.00,Rainwise IP-100,2013-01-07 21:57:00,
2013-01-07 17:02:00,32.6,28.0,30.35,NE,45,0.0,2.1,79,0.00,,,0.00,Rainwise IP-100,2013-01-07 22:02:00,
2013-01-07 17:07:00,32.0,26.0,30.35,NE,45,0.0,0.0,80,0.00,,,0.00,Rainwise IP-100,2013-01-07 22:07:00,
2013-01-07 17:12:00,31.9,28.0,30.35,NNE,22,0.0,1.6,81,0.00,,,0.00,Rainwise IP-100,2013-01-07 22:12:00,
2013-01-07 17:17:00,32.0,28.0,30.36,NNE,22,0.0,0.0,81,0.00,,,0.00,Rainwise IP-100,2013-01-07 22:17:00,
2013-01-07 17:22:00,31.8,28.0,30.36,NNE,22,1.4,0.0,82,0.00,,,0.00,Rainwise IP-100,2013-01-07 22:22:00,
2013-01-07 17:27:00,31.3,26.0,30.36,NNE,22,0.0,1.4,82,0.00,,,0.00,Rainwise IP-100,2013-01-07 22:27:00,
2013-01-07 17:32:00,30.7,26.0,30.36,NNE,22,0.0,1.2,83,0.00,,,0.00,Rainwise IP-100,2013-01-07 22:32:00,
2013-01-07 17:37:00,30.3,26.0,30.37,NNE,22,1.2,0.0,84,0.00,,,0.00,Rainwise IP-100,2013-01-07 22:37:00,
2013-01-07 17:42:00,30.2,26.0,30.36,NNE,22,1.2,2.1,85,0.00,,,0.00,Rainwise IP-100,2013-01-07 22:42:00,
2013-01-07 17:47:00,30.2,28.0,30.38,NNE,22,0.0,1.6,86,0.00,,,0.00,Rainwise IP-100,2013-01-07 22:47:00,
2013-01-07 17:52:00,30.3,28.0,30.37,NNE,22,0.0,0.0,86,0.00,,,0.00,Rainwise IP-100,2013-01-07 22:52:00,
2013-01-07 17:57:00,30.1,28.0,30.38,NNE,22,0.0,0.0,87,0.00,,,0.00,Rainwise IP-100,2013-01-07 22:57:00,
2013-01-07 18:02:00,29.8,28.0,30.37,NNE,22,0.0,0.0,87,0.00,,,0.00,Rainwise IP-100,2013-01-07 23:02:00,
2013-01-07 18:07:00,29.6,28.0,30.37,NNE,22,1.2,1.2,87,0.00,,,0.00,Rainwise IP-100,2013-01-07 23:07:00,
2013-01-07 18:12:00,29.3,26.0,30.37,NNE,22,0.0,1.4,88,0.00,,,0.00,Rainwise IP-100,2013-01-07 23:12:00,
2013-01-07 18:17:00,29.1,26.0,30.38,NNE,22,1.6,1.6,88,0.00,,,0.00,Rainwise IP-100,2013-01-07 23:17:00,
2013-01-07 18:22:00,29.0,26.0,30.38,NNE,22,0.0,1.6,89,0.00,,,0.00,Rainwise IP-100,2013-01-07 23:22:00,
2013-01-07 18:27:00,29.0,26.0,30.38,NNE,22,0.0,0.0,89,0.00,,,0.00,Rainwise IP-100,2013-01-07 23:27:00,
2013-01-07 18:32:00,28.8,26.0,30.38,NNE,22,0.0,0.0,90,0.00,,,0.00,Rainwise IP-100,2013-01-07 23:32:00,
2013-01-07 18:37:00,28.5,26.0,30.39,NNE,22,0.0,0.0,90,0.00,,,0.00,Rainwise IP-100,2013-01-07 23:37:00,
2013-01-07 18:42:00,28.3,26.0,30.38,NNE,22,0.0,0.0,90,0.00,,,0.00,Rainwise IP-100,2013-01-07 23:42:00,
2013-01-07 18:47:00,28.3,26.0,30.38,NNE,22,0.0,0.0,90,0.00,,,0.00,Rainwise IP-100,2013-01-07 23:47:00,
2013-01-07 18:52:00,28.4,26.0,30.38,NNE,22,0.0,2.1,91,0.00,,,0.00,Rainwise IP-100,2013-01-07 23:52:00,
2013-01-07 18:57:00,28.5,28.0,30.38,NNE,22,1.2,1.6,91,0.00,,,0.00,Rainwise IP-100,2013-01-07 23:57:00,
2013-01-07 19:02:00,28.3,26.0,30.38,NNE,22,0.0,1.6,91,0.00,,,0.00,Rainwise IP-100,2013-01-08 00:02:00,
2013-01-07 19:07:00,28.0,26.0,30.38,NNE,22,0.0,1.4,91,0.00,,,0.00,Rainwise IP-100,2013-01-08 00:07:00,
2013-01-07 19:12:00,27.6,26.0,30.38,NNE,22,1.2,0.0,91,0.00,,,0.00,Rainwise IP-100,2013-01-08 00:12:00,
2013-01-07 19:17:00,27.5,26.0,30.38,NNE,22,1.4,1.4,92,0.00,,,0.00,Rainwise IP-100,2013-01-08 00:17:00,
2013-01-07 19:22:00,28.0,26.0,30.38,NNE,22,0.0,2.1,92,0.00,,,0.00,Rainwise IP-100,2013-01-08 00:22:00,
2013-01-07 19:27:00,28.2,26.0,30.39,NNE,22,0.0,1.2,93,0.00,,,0.00,Rainwise IP-100,2013-01-08 00:27:00,
2013-01-07 19:32:00,28.4,26.0,30.39,NNE,22,0.0,1.4,93,0.00,,,0.00,Rainwise IP-100,2013-01-08 00:32:00,
2013-01-07 19:37:00,28.5,28.0,30.39,NNE,22,0.0,2.1,93,0.00,,,0.00,Rainwise IP-100,2013-01-08 00:37:00,
2013-01-07 19:42:00,28.2,26.0,30.39,NNE,22,0.0,0.0,92,0.00,,,0.00,Rainwise IP-100,2013-01-08 00:42:00,
2013-01-07 19:47:00,27.8,26.0,30.38,NNE,22,0.0,0.0,92,0.00,,,0.00,Rainwise IP-100,2013-01-08 00:47:00,
2013-01-07 19:52:00,27.5,26.0,30.39,NNE,22,0.0,0.0,92,0.00,,,0.00,Rainwise IP-100,2013-01-08 00:52:00,
2013-01-07 19:57:00,27.3,26.0,30.39,NNE,22,1.2,0.0,92,0.00,,,0.00,Rainwise IP-100,2013-01-08 00:57:00,
2013-01-07 20:02:00,27.3,26.0,30.39,NNE,22,0.0,1.4,93,0.00,,,0.00,Rainwise IP-100,2013-01-08 01:02:00,
2013-01-07 20:07:00,27.3,26.0,30.39,NNE,22,0.0,0.0,93,0.00,,,0.00,Rainwise IP-100,2013-01-08 01:07:00,
2013-01-07 20:12:00,27.3,26.0,30.39,NNE,22,0.0,0.0,94,0.00,,,0.00,Rainwise IP-100,2013-01-08 01:12:00,
2013-01-07 20:17:00,27.5,26.0,30.38,NNE,22,0.0,0.0,94,0.00,,,0.00,Rainwise IP-100,2013-01-08 01:17:00,
2013-01-07 20:22:00,27.6,26.0,30.38,NNE,22,0.0,0.0,95,0.00,,,0.00,Rainwise IP-100,2013-01-08 01:22:00,
2013-01-07 20:27:00,27.8,26.0,30.37,NNE,22,0.0,0.0,95,0.00,,,0.00,Rainwise IP-100,2013-01-08 01:27:00,
2013-01-07 20:32:00,28.2,26.0,30.38,NNE,22,0.0,1.6,95,0.00,,,0.00,Rainwise IP-100,2013-01-08 01:32:00,
2013-01-07 20:37:00,28.1,26.0,30.37,NNE,22,0.0,1.6,95,0.00,,,0.00,Rainwise IP-100,2013-01-08 01:37:00,
2013-01-07 20:42:00,28.1,26.0,30.37,NNE,22,0.0,1.2,95,0.00,,,0.00,Rainwise IP-100,2013-01-08 01:42:00,
2013-01-07 20:47:00,28.4,26.0,30.38,NNE,22,0.0,0.0,95,0.00,,,0.00,Rainwise IP-100,2013-01-08 01:47:00,
2013-01-07 20:52:00,28.6,28.0,30.37,NNE,22,0.0,1.6,95,0.00,,,0.00,Rainwise IP-100,2013-01-08 01:52:00,
2013-01-07 20:57:00,28.6,28.0,30.37,NNE,22,1.2,1.9,95,0.00,,,0.00,Rainwise IP-100,2013-01-08 01:57:00,
2013-01-07 21:02:00,28.7,28.0,30.37,NNE,22,0.0,2.1,95,0.00,,,0.00,Rainwise IP-100,2013-01-08 02:02:00,
2013-01-07 21:07:00,28.5,28.0,30.37,NNE,22,0.0,2.1,94,0.00,,,0.00,Rainwise IP-100,2013-01-08 02:07:00,
2013-01-07 21:12:00,27.9,26.0,30.37,NNE,22,1.2,2.1,94,0.00,,,0.00,Rainwise IP-100,2013-01-08 02:12:00,
2013-01-07 21:17:00,27.8,26.0,30.37,ESE,112,1.2,1.4,94,0.00,,,0.00,Rainwise IP-100,2013-01-08 02:17:00,
2013-01-07 21:22:00,28.2,26.0,30.38,ESE,112,0.0,2.3,94,0.00,,,0.00,Rainwise IP-100,2013-01-08 02:22:00,
2013-01-07 21:27:00,28.5,28.0,30.37,SSE,157,2.8,2.8,95,0.00,,,0.00,Rainwise IP-100,2013-01-08 02:27:00,
2013-01-07 21:32:00,28.8,28.0,30.38,SSE,157,1.2,2.8,95,0.00,,,0.00,Rainwise IP-100,2013-01-08 02:32:00,
2013-01-07 21:37:00,29.2,28.0,30.38,SSE,157,0.0,3.0,95,0.00,,,0.00,Rainwise IP-100,2013-01-08 02:37:00,
2013-01-07 21:42:00,29.4,28.0,30.38,SSE,157,0.0,2.6,95,0.00,,,0.00,Rainwise IP-100,2013-01-08 02:42:00,
2013-01-07 21:47:00,29.7,29.0,30.38,SSE,157,0.0,0.0,95,0.00,,,0.00,Rainwise IP-100,2013-01-08 02:47:00,
2013-01-07 21:52:00,29.5,29.0,30.38,SSE,157,0.0,0.0,94,0.00,,,0.00,Rainwise IP-100,2013-01-08 02:52:00,
2013-01-07 21:57:00,29.1,28.0,30.38,SSE,157,0.0,0.0,94,0.00,,,0.00,Rainwise IP-100,2013-01-08 02:57:00,
2013-01-07 22:02:00,28.9,28.0,30.38,ESE,112,0.0,1.9,95,0.00,,,0.00,Rainwise IP-100,2013-01-08 03:02:00,
2013-01-07 22:07:00,29.2,28.0,30.38,ESE,112,0.0,3.3,95,0.00,,,0.00,Rainwise IP-100,2013-01-08 03:07:00,
2013-01-07 22:12:00,29.6,29.0,30.38,SSE,157,0.0,2.8,95,0.00,,,0.00,Rainwise IP-100,2013-01-08 03:12:00,
2013-01-07 22:17:00,29.9,29.0,30.38,SSE,157,0.0,1.4,96,0.00,,,0.00,Rainwise IP-100,2013-01-08 03:17:00,
2013-01-07 22:22:00,29.8,29.0,30.37,SE,135,0.0,1.2,95,0.00,,,0.00,Rainwise IP-100,2013-01-08 03:22:00,
2013-01-07 22:27:00,29.3,28.0,30.37,SE,135,0.0,0.0,95,0.00,,,0.00,Rainwise IP-100,2013-01-08 03:27:00,
2013-01-07 22:32:00,29.0,28.0,30.37,SE,135,0.0,0.0,95,0.00,,,0.00,Rainwise IP-100,2013-01-08 03:32:00,
2013-01-07 22:37:00,29.1,28.0,30.37,SE,135,0.0,0.0,95,0.00,,,0.00,Rainwise IP-100,2013-01-08 03:37:00,
2013-01-07 22:42:00,29.5,29.0,30.36,SE,135,0.0,1.4,96,0.00,,,0.00,Rainwise IP-100,2013-01-08 03:42:00,
2013-01-07 22:47:00,29.7,29.0,30.37,SE,135,0.0,0.0,96,0.00,,,0.00,Rainwise IP-100,2013-01-08 03:47:00,
2013-01-07 22:52:00,29.7,29.0,30.37,SE,135,0.0,0.0,97,0.00,,,0.00,Rainwise IP-100,2013-01-08 03:52:00,
2013-01-07 22:57:00,29.9,29.0,30.36,SE,135,0.0,1.9,97,0.00,,,0.00,Rainwise IP-100,2013-01-08 03:57:00,
2013-01-07 23:02:00,30.4,29.0,30.36,SE,135,0.0,1.4,97,0.00,,,0.00,Rainwise IP-100,2013-01-08 04:02:00,
2013-01-07 23:07:00,30.3,29.0,30.36,SE,135,0.0,1.9,97,0.00,,,0.00,Rainwise IP-100,2013-01-08 04:07:00,
2013-01-07 23:12:00,30.0,29.0,30.36,SE,135,0.0,1.2,97,0.00,,,0.00,Rainwise IP-100,2013-01-08 04:12:00,
2013-01-07 23:17:00,30.3,29.0,30.36,SE,135,0.0,0.0,97,0.00,,,0.00,Rainwise IP-100,2013-01-08 04:17:00,
2013-01-07 23:22:00,30.8,31.0,30.36,SE,135,0.0,0.0,98,0.00,,,0.00,Rainwise IP-100,2013-01-08 04:22:00,
2013-01-07 23:27:00,31.0,31.0,30.35,South,180,0.0,1.6,98,0.00,,,0.00,Rainwise IP-100,2013-01-08 04:27:00,
2013-01-07 23:32:00,31.2,31.0,30.36,South,180,1.6,7.0,98,0.00,,,0.00,Rainwise IP-100,2013-01-08 04:32:00,
2013-01-07 23:37:00,31.8,31.0,30.35,South,180,5.6,7.2,97,0.00,,,0.00,Rainwise IP-100,2013-01-08 04:37:00,
2013-01-07 23:42:00,32.8,32.0,30.35,SSE,157,5.1,8.4,97,0.00,,,0.00,Rainwise IP-100,2013-01-08 04:42:00,
2013-01-07 23:47:00,33.9,33.0,30.36,South,180,6.1,7.9,97,0.00,,,0.00,Rainwise IP-100,2013-01-08 04:47:00,
2013-01-07 23:52:00,34.7,33.0,30.35,South,180,9.3,11.4,96,0.00,,,0.00,Rainwise IP-100,2013-01-08 04:52:00,
2013-01-07 23:57:00,35.6,35.0,30.36,WSW,247,1.6,11.9,94,0.00,,,0.00,Rainwise IP-100,2013-01-08 04:57:00,